FENGYUN 1C DEB, 37707

Orbit data source: Space-Track

FENGYUN 1C DEB, 37707 is space debris in SSO originally from a launch on Mon, 10 May 1999 UTC launched from the Taiyaun Space Center, China (TSC). Fengyun 1C debris stems from the Chinese weather satellite Fengyun-1C, which was intentionally destroyed by a Chinese anti-satellite missile in 2007. This event dramatically increased the amount of space debris, with thousands of trackable fragments posing hazards to satellites and human spaceflight. The Fengyun 1C debris cloud has become a focal point in discussions about space sustainability and the need for international regulations to prevent the creation of new debris.

Loading next visibility...
Identifier
37707, 1999-025ELY
Orbit
SSO
Country
Flag of CNCN / PRC
Related business
Manufacturer
Unknown
Mission
Spacecraft
Bus & Motor
Unknown
Mass
Unknown
Launch date (UTC)
1999-05-10 (27 years ago)
Launch vehicle
Unknown
Launch site
Taiyaun Space Center, China (TSC)
Object type
Payload
Rocket body
Debris
Shape & HBR
Unknown shape, 0.1 m
Radar Cross Section
Small (<0.1 m²)

Expand to show TLE details & history
Last TLE update: 1 day ago

TLE from 1 day ago
0 FENGYUN 1C DEB
1 37707U 99025ELY 26117.88793815  .00002026  00000-0  40538-3 0  9998
2 37707 100.2126 157.4749 0141060 349.3432 188.3818 14.57301463875488
Epoch: 2026-04-27T21:18Z
TLE epoch observation values (Epoch: 2026-04-27T21:18:37.856Z)
Latitude
2.36514°
Longitude
162.3701°
Altitude
803.391 km
Speed
7.4 km/s
True Right ascension
22h 31m 35s
True Declination
2° 21' 04"
Sunlit
Object was in daylight at epoch
Visualization orbit readout
Latitude
Unknown
Longitude
Unknown
Altitude
Unknown
Speed
Unknown
Apparent Right ascension
Unknown
Apparent Declination
Unknown
Sunlit
N/A
Visualization observer readout
Local Sidereal Time
07:59:38
Azimuth
Unknown
Elevation
Unknown
Doppler factor
Unknown
Orbital elements
Apogee altitude
798.92 km
Perigee altitude
599.257 km
Semi-major axis
7,077.225 km
Eccentricity
0.01411
Inclination
100.2126°
RAAN
157.4749°
Arg. of periapsis
349.3432°
True anomaly
188.15022°
Mean anomaly
188.3818°
Eccentric anomaly
188.26561°
Mean motion
3.64543 °/min
Orbital period
98.75 mins
BSTAR
0.00040538
Loading maneuver chart data...
Computing Atmospheric mass density...

Documentation

Showing up to 5 results
|